User: anonymous   Login
Location: Unspecified
(0.0000°N, 0.0000°E)
Time: 08:43:52
(UTC+01:00)
Language:

Delta 2 Rocket - Orbit

View from above orbital plane
View from above orbital plane
View from above satellite
View from above satellite

Ground track
Ground track

The orbit data is extracted from the following two-line orbital elements,

1 20453U 90008B   16344.17860172  .00003217  00000-0  18802-3 0  9996
2 20453  35.6253 266.1611 0291011  28.4003 333.2240 14.82564215419980
Epoch (UTC): 09 December 2016 04:17:11
Eccentricity: 0.0291011
inclination: 35.6253°
perigee height: 417 km
apogee height: 825 km
right ascension of ascending node: 266.1611°
argument of perigee: 28.4003°
revolutions per day: 14.82564215
mean anomaly at epoch: 333.2240°
orbit number at epoch: 41998

The dashed part of the orbit path shows where the satellite is in the earth's shadow,  

DLR